Disclaimer

Please do not use the information listed here in-flight or in-navigation, as they are not provided to us by the airports but are provided by volunteers, so they might be outdated.

Search


Regions


Airport information page

Radio informations:
MENDERES TWR - 118.1 MHz
MENDERES RAMP - 121.7 MHz
MENDERES GND - 121.9 MHz
Automatic Terminal Information Service (ATIS) - 129.2 MHz
MENDERES APP - 119.5 MHz

Airport informations:
Latitude: 38° 17' 32.61" N
Longitude: 027° 09' 25.03" E
Elevation: 412 feet - 126 meters
Operating hours: N/A
Operating agency: Civil government, landing fees and diplomatic clearance may be required
Timezone: UTC+2(+3DT) - Dates notified by NOTAM
Fuel: Jet A1, without icing nhibitor.

100/130 MIL Spec, low lead, aviation gasoline (BLUE)

Runway information:
16R/34L - 10630 x 147 feet< - >3240 x 45 meters
16L/34R - 10630 x 147 feet< - >3240 x 45 meters

Recent METARs:
LTBJ 152202Z 36018G29KT 9999 SCT030 SCT180 02/M03 Q1008 NOSIG RMK RWY16 35019KT
LTBJ 152220Z 35018KT 9999 SCT030 SCT180 02/M03 Q1008 NOSIG RMK RWY16 35017KT
LTBJ 152250Z 36016KT 9999 FEW030 SCT180 02/M03 Q1008 NOSIG RMK RWY16 36017KT

Airport on the map: